DECAYED

STARLINK-1715, 46671 (Decayed)

Orbit data source: Space-Track

STARLINK-1715, 46671 was a payload satellite owned by SpaceX/Seattle (US) in LEO that was launched on Sun, 18 Oct 2020 UTC via an FALCON 9 launch vehicle from the Air Force Eastern Test Range (AFETR). Payload-class satellites include a variety of spacecraft equipped with specific instruments for various scientific and technological missions. These include communications satellites like Starlink; space stations such as the ISS; scientific satellites like the Hubble; Earth observation satellites from companies like Planet Labs, Umbra, and HawkEye 360; GPS; miniature CubeSats for education and research; and military/defense satellites.

Not visible in the next 10 days
Identifier
46671, 2020-073B
Orbit
Decayed
Country
Flag of USUS
Related business
Manufacturer
SpaceX/Seattle
Mission
Decayed Commercial Communications
Bus & Motor
STARLINK, Unknown motor
Mass
260 kg wet, ~248 kg dry
Launch date (UTC)
2020-10-18 (5 years ago)
Launch vehicle
FALCON 9
Launch site
Air Force Eastern Test Range (AFETR)
Object type
Payload
Rocket body
Debris
Shape & HBR
Box + 1 Pan, 10.1 m
Radar Cross Section
13.562 m², Large (>1 m²)

Expand to show TLE details & history
Last TLE update: 1 year ago

TLE from 1 year ago
0 STARLINK-1715
1 46671U 20073B   25066.35996367  .09992907  12342-4  79435-3 0  9995
2 46671  53.0246  51.0076 0000269 248.9460 267.9907 16.39316416242799
Epoch: 2025-03-07T08:38Z
TLE epoch observation values (Epoch: 2025-03-07T08:38:20.861Z)
Latitude
18.27459°
Longitude
-78.21207°
Altitude
167.984 km
Speed
7.808 km/s
True Right ascension
14h 26m 47s
True Declination
18° 09' 48"
Sunlit
Object was in full shadow at epoch
Visualization orbit readout
Latitude
Unknown
Longitude
Unknown
Altitude
Unknown
Speed
Unknown
Apparent Right ascension
Unknown
Apparent Declination
Unknown
Sunlit
N/A
Visualization observer readout
Local Sidereal Time
10:36:30
Azimuth
Unknown
Elevation
Unknown
Doppler factor
Unknown
Orbital elements
Apogee altitude
168.089 km
Perigee altitude
167.736 km
Semi-major axis
6,546.05 km
Eccentricity
0.00003
Inclination
53.0246°
RAAN
51.0076°
Arg. of periapsis
248.946°
True anomaly
267.98762°
Mean anomaly
267.9907°
Eccentric anomaly
267.98916°
Mean motion
4.09802 °/min
Orbital period
87.85 mins
BSTAR
0.00079435
Loading maneuver chart data...
Computing Atmospheric mass density...

Documentation

Showing up to 5 results
|